Location: North Evanston
(42.0634°N, 87.6976°W)
Time: 22:41:31
(UTC+00:00)

Transit 2A - Pass Details

Date: 15 May 2026
Orbit: 595 x 949 km, 66.7° (Epoch: 5 June)

Event Time Altitude Azimuth Distance (km) Brightness Sun altitude
Rises 05:39:44 0° 335° (NNW) 3,200 10.2 -29.0°
Reaches altitude 10° 05:42:26 10° 345° (NNW) 2,210 9.3 -29.0°
Maximum altitude 05:46:57 34° 50° (NE) 1,110 7.1 -29.1°
Enters shadow 05:47:17 34° 59° (ENE) 1,113 7.0 -29.1°
Drops below altitude 10° 05:51:07 10° 116° (ESE) 2,023 - -29.0°
Sets 05:53:28 0° 126° (SE) 2,890 - -29.0°
